iso_date,epoch_date,Year,Hour,Min,DOY,POS_DOY,Lat,Lon,BP,Ts,Ta,has_bp,has_ts,has_ta,BuoyID,Buoy_Type,Buoy_Owner,Logistics,Hemisphere
2014-03-09T21:00:00Z,1394398800,2014,21,0,68.875,68.875,73.366,-134.9868,-999.00,-999.00,-999.0,no,no,no,90077,ITP,WHOI,ONR_MIZ,North
2014-03-09T22:00:28Z,1394402429,2014,22,0,68.917,68.917,73.366,-134.9871,-999.00,-999.00,-999.0,no,no,no,90077,ITP,WHOI,ONR_MIZ,North
2014-03-09T22:59:31Z,1394405971,2014,22,59,68.958,68.958,73.366,-134.9872,-999.00,-999.00,-999.0,no,no,no,90077,ITP,WHOI,ONR_MIZ,North
2014-03-10T00:00:00Z,1394409600,2014,0,0,69.0,69.0,73.366,-134.9871,-999.00,-999.00,-999.0,no,no,no,90077,ITP,WHOI,ONR_MIZ,North
2014-03-10T01:00:28Z,1394413229,2014,1,0,69.042,69.042,73.366,-134.9871,-999.00,-999.00,-999.0,no,no,no,90077,ITP,WHOI,ONR_MIZ,North
2014-03-10T01:59:31Z,1394416771,2014,1,59,69.083,69.083,73.366,-134.9871,-999.00,-999.00,-999.0,no,no,no,90077,ITP,WHOI,ONR_MIZ,North
2014-03-10T03:00:00Z,1394420400,2014,3,0,69.125,69.125,73.366,-134.9871,-999.00,-999.00,-999.0,no,no,no,90077,ITP,WHOI,ONR_MIZ,North
2014-03-10T04:00:28Z,1394424029,2014,4,0,69.167,69.167,73.366,-134.9871,-999.00,-999.00,-999.0,no,no,no,90077,ITP,WHOI,ONR_MIZ,North
2014-03-10T04:59:31Z,1394427571,2014,4,59,69.208,69.208,73.366,-134.9871,-999.00,-999.00,-999.0,no,no,no,90077,ITP,WHOI,ONR_MIZ,North
2014-03-10T06:00:00Z,1394431200,2014,6,0,69.25,69.25,73.366,-134.9871,-999.00,-999.00,-999.0,no,no,no,90077,ITP,WHOI,ONR_MIZ,North
2014-03-10T07:00:28Z,1394434829,2014,7,0,69.292,69.292,73.366,-134.9871,-999.00,-999.00,-999.0,no,no,no,90077,ITP,WHOI,ONR_MIZ,North
2014-03-10T07:59:31Z,1394438371,2014,7,59,69.333,69.333,73.366,-134.9871,-999.00,-999.00,-999.0,no,no,no,90077,ITP,WHOI,ONR_MIZ,North
2014-03-10T09:00:00Z,1394442000,2014,9,0,69.375,69.375,73.366,-134.9871,-999.00,-999.00,-999.0,no,no,no,90077,ITP,WHOI,ONR_MIZ,North
2014-03-10T10:00:28Z,1394445629,2014,10,0,69.417,69.417,73.366,-134.9871,-999.00,-999.00,-999.0,no,no,no,90077,ITP,WHOI,ONR_MIZ,North
2014-03-10T10:59:31Z,1394449171,2014,10,59,69.458,69.458,73.366,-134.987,-999.00,-999.00,-999.0,no,no,no,90077,ITP,WHOI,ONR_MIZ,North
2014-03-10T12:00:00Z,1394452800,2014,12,0,69.5,69.5,73.366,-134.987,-999.00,-999.00,-999.0,no,no,no,90077,ITP,WHOI,ONR_MIZ,North
2014-03-10T13:00:28Z,1394456429,2014,13,0,69.542,69.542,73.366,-134.9871,-999.00,-999.00,-999.0,no,no,no,90077,ITP,WHOI,ONR_MIZ,North
2014-03-10T13:59:31Z,1394459971,2014,13,59,69.583,69.583,73.366,-134.9871,-999.00,-999.00,-999.0,no,no,no,90077,ITP,WHOI,ONR_MIZ,North
2014-03-10T15:00:00Z,1394463600,2014,15,0,69.625,69.625,73.3659,-134.9871,-999.00,-999.00,-999.0,no,no,no,90077,ITP,WHOI,ONR_MIZ,North
2014-03-10T16:00:28Z,1394467229,2014,16,0,69.667,69.667,73.366,-134.987,-999.00,-999.00,-999.0,no,no,no,90077,ITP,WHOI,ONR_MIZ,North
2014-03-10T16:59:31Z,1394470771,2014,16,59,69.708,69.708,73.366,-134.9871,-999.00,-999.00,-999.0,no,no,no,90077,ITP,WHOI,ONR_MIZ,North
2014-03-10T18:00:00Z,1394474400,2014,18,0,69.75,69.75,73.366,-134.987,-999.00,-999.00,-999.0,no,no,no,90077,ITP,WHOI,ONR_MIZ,North
2014-03-10T19:00:28Z,1394478029,2014,19,0,69.792,69.792,73.366,-134.9871,-999.00,-999.00,-999.0,no,no,no,90077,ITP,WHOI,ONR_MIZ,North
2014-03-10T19:59:31Z,1394481571,2014,19,59,69.833,69.833,73.366,-134.9871,-999.00,-999.00,-999.0,no,no,no,90077,ITP,WHOI,ONR_MIZ,North
2014-03-10T21:00:00Z,1394485200,2014,21,0,69.875,69.875,73.366,-134.987,-999.00,-999.00,-999.0,no,no,no,90077,ITP,WHOI,ONR_MIZ,North
2014-03-10T22:00:28Z,1394488829,2014,22,0,69.917,69.917,73.366,-134.9871,-999.00,-999.00,-999.0,no,no,no,90077,ITP,WHOI,ONR_MIZ,North
2014-03-10T22:59:31Z,1394492371,2014,22,59,69.958,69.958,73.366,-134.9871,-999.00,-999.00,-999.0,no,no,no,90077,ITP,WHOI,ONR_MIZ,North
2014-03-11T00:00:00Z,1394496000,2014,0,0,70.0,70.0,73.366,-134.9871,-999.00,-999.00,-999.0,no,no,no,90077,ITP,WHOI,ONR_MIZ,North
2014-03-11T01:37:55Z,1394501875,2014,1,38,70.068,70.068,73.3662,-134.9874,-999.00,-999.00,-999.0,no,no,no,90077,ITP,WHOI,ONR_MIZ,North
2014-03-11T01:59:31Z,1394503171,2014,1,59,70.083,70.083,73.366,-134.987,-999.00,-999.00,-999.0,no,no,no,90077,ITP,WHOI,ONR_MIZ,North
2014-03-11T03:00:00Z,1394506800,2014,3,0,70.125,70.125,73.366,-134.9871,-999.00,-999.00,-999.0,no,no,no,90077,ITP,WHOI,ONR_MIZ,North
2014-03-11T04:00:28Z,1394510429,2014,4,0,70.167,70.167,73.366,-134.9871,-999.00,-999.00,-999.0,no,no,no,90077,ITP,WHOI,ONR_MIZ,North
2014-03-11T05:05:16Z,1394514317,2014,5,5,70.212,70.212,73.366,-134.9873,-999.00,-999.00,-999.0,no,no,no,90077,ITP,WHOI,ONR_MIZ,North
2014-03-11T06:00:00Z,1394517600,2014,6,0,70.25,70.25,73.366,-134.9872,-999.00,-999.00,-999.0,no,no,no,90077,ITP,WHOI,ONR_MIZ,North
2014-03-11T07:00:28Z,1394521229,2014,7,0,70.292,70.292,73.3659,-134.9872,-999.00,-999.00,-999.0,no,no,no,90077,ITP,WHOI,ONR_MIZ,North
2014-03-11T07:59:31Z,1394524771,2014,7,59,70.333,70.333,73.3659,-134.9873,-999.00,-999.00,-999.0,no,no,no,90077,ITP,WHOI,ONR_MIZ,North
2014-03-11T09:00:00Z,1394528400,2014,9,0,70.375,70.375,73.3659,-134.9875,-999.00,-999.00,-999.0,no,no,no,90077,ITP,WHOI,ONR_MIZ,North
2014-03-11T10:00:28Z,1394532029,2014,10,0,70.417,70.417,73.3659,-134.9875,-999.00,-999.00,-999.0,no,no,no,90077,ITP,WHOI,ONR_MIZ,North
2014-03-11T11:03:50Z,1394535830,2014,11,3,70.461,70.461,73.3659,-134.9876,-999.00,-999.00,-999.0,no,no,no,90077,ITP,WHOI,ONR_MIZ,North
2014-03-11T12:00:00Z,1394539200,2014,12,0,70.5,70.5,73.3659,-134.9875,-999.00,-999.00,-999.0,no,no,no,90077,ITP,WHOI,ONR_MIZ,North
2014-03-11T13:00:28Z,1394542829,2014,13,0,70.542,70.542,73.3659,-134.9876,-999.00,-999.00,-999.0,no,no,no,90077,ITP,WHOI,ONR_MIZ,North
2014-03-11T13:59:31Z,1394546371,2014,13,59,70.583,70.583,73.3659,-134.9886,-999.00,-999.00,-999.0,no,no,no,90077,ITP,WHOI,ONR_MIZ,North
2014-03-11T15:00:00Z,1394550000,2014,15,0,70.625,70.625,73.3658,-134.9906,-999.00,-999.00,-999.0,no,no,no,90077,ITP,WHOI,ONR_MIZ,North
2014-03-11T16:00:28Z,1394553629,2014,16,0,70.667,70.667,73.3655,-134.9937,-999.00,-999.00,-999.0,no,no,no,90077,ITP,WHOI,ONR_MIZ,North
2014-03-11T17:05:16Z,1394557517,2014,17,5,70.712,70.712,73.3651,-134.9986,-999.00,-999.00,-999.0,no,no,no,90077,ITP,WHOI,ONR_MIZ,North
2014-03-11T18:00:00Z,1394560800,2014,18,0,70.75,70.75,73.3647,-135.0029,-999.00,-999.00,-999.0,no,no,no,90077,ITP,WHOI,ONR_MIZ,North
2014-03-11T19:00:28Z,1394564429,2014,19,0,70.792,70.792,73.3644,-135.0093,-999.00,-999.00,-999.0,no,no,no,90077,ITP,WHOI,ONR_MIZ,North
2014-03-11T19:59:31Z,1394567971,2014,19,59,70.833,70.833,73.3638,-135.0207,-999.00,-999.00,-999.0,no,no,no,90077,ITP,WHOI,ONR_MIZ,North
2014-03-11T21:00:00Z,1394571600,2014,21,0,70.875,70.875,73.3636,-135.0261,-999.00,-999.00,-999.0,no,no,no,90077,ITP,WHOI,ONR_MIZ,North
2014-03-11T22:00:28Z,1394575229,2014,22,0,70.917,70.917,73.363,-135.036,-999.00,-999.00,-999.0,no,no,no,90077,ITP,WHOI,ONR_MIZ,North
2014-03-11T23:03:50Z,1394579030,2014,23,4,70.961,70.961,73.3624,-135.0491,-999.00,-999.00,-999.0,no,no,no,90077,ITP,WHOI,ONR_MIZ,North
2014-03-12T00:00:00Z,1394582400,2014,0,0,71.0,71.0,73.3618,-135.0625,-999.00,-999.00,-999.0,no,no,no,90077,ITP,WHOI,ONR_MIZ,North
2014-03-12T01:00:28Z,1394586029,2014,1,0,71.042,71.042,73.3613,-135.0775,-999.00,-999.00,-999.0,no,no,no,90077,ITP,WHOI,ONR_MIZ,North
2014-03-12T01:59:31Z,1394589571,2014,1,59,71.083,71.083,73.3612,-135.0935,-999.00,-999.00,-999.0,no,no,no,90077,ITP,WHOI,ONR_MIZ,North
2014-03-12T03:00:00Z,1394593200,2014,3,0,71.125,71.125,73.3612,-135.1103,-999.00,-999.00,-999.0,no,no,no,90077,ITP,WHOI,ONR_MIZ,North
2014-03-12T04:00:28Z,1394596829,2014,4,0,71.167,71.167,73.3621,-135.1283,-999.00,-999.00,-999.0,no,no,no,90077,ITP,WHOI,ONR_MIZ,North
2014-03-12T05:03:50Z,1394600630,2014,5,4,71.211,71.211,73.3631,-135.1467,-999.00,-999.00,-999.0,no,no,no,90077,ITP,WHOI,ONR_MIZ,North
2014-03-12T06:00:00Z,1394604000,2014,6,0,71.25,71.25,73.3632,-135.1611,-999.00,-999.00,-999.0,no,no,no,90077,ITP,WHOI,ONR_MIZ,North
2014-03-12T07:00:28Z,1394607629,2014,7,0,71.292,71.292,73.363,-135.1764,-999.00,-999.00,-999.0,no,no,no,90077,ITP,WHOI,ONR_MIZ,North
2014-03-12T07:59:31Z,1394611171,2014,7,59,71.333,71.333,73.3628,-135.1931,-999.00,-999.00,-999.0,no,no,no,90077,ITP,WHOI,ONR_MIZ,North
2014-03-12T09:00:00Z,1394614800,2014,9,0,71.375,71.375,73.3628,-135.213,-999.00,-999.00,-999.0,no,no,no,90077,ITP,WHOI,ONR_MIZ,North
2014-03-12T10:00:28Z,1394618429,2014,10,0,71.417,71.417,73.3638,-135.2328,-999.00,-999.00,-999.0,no,no,no,90077,ITP,WHOI,ONR_MIZ,North
2014-03-12T11:03:50Z,1394622230,2014,11,3,71.461,71.461,73.3644,-135.254,-999.00,-999.00,-999.0,no,no,no,90077,ITP,WHOI,ONR_MIZ,North
2014-03-12T12:00:00Z,1394625600,2014,12,0,71.5,71.5,73.3647,-135.2734,-999.00,-999.00,-999.0,no,no,no,90077,ITP,WHOI,ONR_MIZ,North
2014-03-12T13:00:28Z,1394629229,2014,13,0,71.542,71.542,73.3652,-135.2966,-999.00,-999.00,-999.0,no,no,no,90077,ITP,WHOI,ONR_MIZ,North
2014-03-12T13:59:31Z,1394632771,2014,13,59,71.583,71.583,73.3666,-135.3281,-999.00,-999.00,-999.0,no,no,no,90077,ITP,WHOI,ONR_MIZ,North
2014-03-12T15:00:00Z,1394636400,2014,15,0,71.625,71.625,73.3687,-135.3371,-999.00,-999.00,-999.0,no,no,no,90077,ITP,WHOI,ONR_MIZ,North
2014-03-12T16:00:28Z,1394640029,2014,16,0,71.667,71.667,73.3712,-135.3555,-999.00,-999.00,-999.0,no,no,no,90077,ITP,WHOI,ONR_MIZ,North
2014-03-12T17:03:50Z,1394643830,2014,17,3,71.711,71.711,73.3739,-135.3741,-999.00,-999.00,-999.0,no,no,no,90077,ITP,WHOI,ONR_MIZ,North
2014-03-12T18:00:00Z,1394647200,2014,18,0,71.75,71.75,73.3761,-135.3886,-999.00,-999.00,-999.0,no,no,no,90077,ITP,WHOI,ONR_MIZ,North
2014-03-12T19:00:28Z,1394650829,2014,19,0,71.792,71.792,73.3783,-135.4033,-999.00,-999.00,-999.0,no,no,no,90077,ITP,WHOI,ONR_MIZ,North
2014-03-12T19:59:31Z,1394654371,2014,19,59,71.833,71.833,73.3802,-135.4216,-999.00,-999.00,-999.0,no,no,no,90077,ITP,WHOI,ONR_MIZ,North
2014-03-12T21:00:00Z,1394658000,2014,21,0,71.875,71.875,73.3819,-135.4309,-999.00,-999.00,-999.0,no,no,no,90077,ITP,WHOI,ONR_MIZ,North
2014-03-12T22:00:28Z,1394661629,2014,22,0,71.917,71.917,73.3836,-135.4447,-999.00,-999.00,-999.0,no,no,no,90077,ITP,WHOI,ONR_MIZ,North
2014-03-12T22:59:31Z,1394665171,2014,22,59,71.958,71.958,73.3852,-135.4574,-999.00,-999.00,-999.0,no,no,no,90077,ITP,WHOI,ONR_MIZ,North
2014-03-13T00:00:00Z,1394668800,2014,0,0,72.0,72.0,73.3869,-135.4692,-999.00,-999.00,-999.0,no,no,no,90077,ITP,WHOI,ONR_MIZ,North
2014-03-13T01:00:28Z,1394672429,2014,1,0,72.042,72.042,73.3886,-135.4806,-999.00,-999.00,-999.0,no,no,no,90077,ITP,WHOI,ONR_MIZ,North
2014-03-13T01:59:31Z,1394675971,2014,1,59,72.083,72.083,73.3904,-135.4904,-999.00,-999.00,-999.0,no,no,no,90077,ITP,WHOI,ONR_MIZ,North
2014-03-13T03:00:00Z,1394679600,2014,3,0,72.125,72.125,73.3921,-135.4987,-999.00,-999.00,-999.0,no,no,no,90077,ITP,WHOI,ONR_MIZ,North
2014-03-13T05:52:48Z,1394689968,2014,5,52,72.245,72.245,73.397,-135.5159,-999.00,-999.00,-999.0,no,no,no,90077,ITP,WHOI,ONR_MIZ,North
2014-03-13T06:00:00Z,1394690400,2014,6,0,72.25,72.25,73.3971,-135.5165,-999.00,-999.00,-999.0,no,no,no,90077,ITP,WHOI,ONR_MIZ,North
2014-03-13T07:00:28Z,1394694029,2014,7,0,72.292,72.292,73.3986,-135.5207,-999.00,-999.00,-999.0,no,no,no,90077,ITP,WHOI,ONR_MIZ,North
2014-03-13T07:59:31Z,1394697571,2014,7,59,72.333,72.333,73.3999,-135.5242,-999.00,-999.00,-999.0,no,no,no,90077,ITP,WHOI,ONR_MIZ,North
2014-03-13T09:00:00Z,1394701200,2014,9,0,72.375,72.375,73.401,-135.5269,-999.00,-999.00,-999.0,no,no,no,90077,ITP,WHOI,ONR_MIZ,North
2014-03-13T10:00:28Z,1394704829,2014,10,0,72.417,72.417,73.402,-135.5299,-999.00,-999.00,-999.0,no,no,no,90077,ITP,WHOI,ONR_MIZ,North
2014-03-13T11:03:50Z,1394708630,2014,11,3,72.461,72.461,73.403,-135.533,-999.00,-999.00,-999.0,no,no,no,90077,ITP,WHOI,ONR_MIZ,North
2014-03-13T12:00:00Z,1394712000,2014,12,0,72.5,72.5,73.4037,-135.5355,-999.00,-999.00,-999.0,no,no,no,90077,ITP,WHOI,ONR_MIZ,North
2014-03-13T13:00:28Z,1394715629,2014,13,0,72.542,72.542,73.4044,-135.5382,-999.00,-999.00,-999.0,no,no,no,90077,ITP,WHOI,ONR_MIZ,North
2014-03-13T13:59:31Z,1394719171,2014,13,59,72.583,72.583,73.4052,-135.5405,-999.00,-999.00,-999.0,no,no,no,90077,ITP,WHOI,ONR_MIZ,North
2014-03-13T15:00:00Z,1394722800,2014,15,0,72.625,72.625,73.4058,-135.5425,-999.00,-999.00,-999.0,no,no,no,90077,ITP,WHOI,ONR_MIZ,North
2014-03-13T16:00:28Z,1394726429,2014,16,0,72.667,72.667,73.4065,-135.5442,-999.00,-999.00,-999.0,no,no,no,90077,ITP,WHOI,ONR_MIZ,North
2014-03-13T17:03:50Z,1394730230,2014,17,3,72.711,72.711,73.407,-135.5458,-999.00,-999.00,-999.0,no,no,no,90077,ITP,WHOI,ONR_MIZ,North
2014-03-13T18:00:00Z,1394733600,2014,18,0,72.75,72.75,73.4076,-135.5466,-999.00,-999.00,-999.0,no,no,no,90077,ITP,WHOI,ONR_MIZ,North
2014-03-13T19:00:28Z,1394737229,2014,19,0,72.792,72.792,73.408,-135.5485,-999.00,-999.00,-999.0,no,no,no,90077,ITP,WHOI,ONR_MIZ,North
2014-03-13T19:59:31Z,1394740771,2014,19,59,72.833,72.833,73.4084,-135.5557,-999.00,-999.00,-999.0,no,no,no,90077,ITP,WHOI,ONR_MIZ,North
2014-03-13T21:00:00Z,1394744400,2014,21,0,72.875,72.875,73.4088,-135.5533,-999.00,-999.00,-999.0,no,no,no,90077,ITP,WHOI,ONR_MIZ,North
2014-03-13T22:00:28Z,1394748029,2014,22,0,72.917,72.917,73.4093,-135.5561,-999.00,-999.00,-999.0,no,no,no,90077,ITP,WHOI,ONR_MIZ,North
2014-03-13T23:03:50Z,1394751830,2014,23,3,72.961,72.961,73.4099,-135.5597,-999.00,-999.00,-999.0,no,no,no,90077,ITP,WHOI,ONR_MIZ,North
2014-03-14T00:00:00Z,1394755200,2014,0,0,73.0,73.0,73.4102,-135.5633,-999.00,-999.00,-999.0,no,no,no,90077,ITP,WHOI,ONR_MIZ,North
2014-03-14T01:00:28Z,1394758829,2014,1,0,73.042,73.042,73.4107,-135.5727,-999.00,-999.00,-999.0,no,no,no,90077,ITP,WHOI,ONR_MIZ,North
2014-03-14T01:59:31Z,1394762371,2014,1,59,73.083,73.083,73.4112,-135.5714,-999.00,-999.00,-999.0,no,no,no,90077,ITP,WHOI,ONR_MIZ,North
2014-03-14T03:00:00Z,1394766000,2014,3,0,73.125,73.125,73.4117,-135.5757,-999.00,-999.00,-999.0,no,no,no,90077,ITP,WHOI,ONR_MIZ,North
2014-03-14T04:00:28Z,1394769629,2014,4,0,73.167,73.167,73.4122,-135.5804,-999.00,-999.00,-999.0,no,no,no,90077,ITP,WHOI,ONR_MIZ,North
2014-03-14T05:03:50Z,1394773430,2014,5,4,73.211,73.211,73.4127,-135.598,-999.00,-999.00,-999.0,no,no,no,90077,ITP,WHOI,ONR_MIZ,North
2014-03-14T06:00:00Z,1394776800,2014,6,0,73.25,73.25,73.4133,-135.5889,-999.00,-999.00,-999.0,no,no,no,90077,ITP,WHOI,ONR_MIZ,North
2014-03-14T07:00:28Z,1394780429,2014,7,0,73.292,73.292,73.414,-135.5929,-999.00,-999.00,-999.0,no,no,no,90077,ITP,WHOI,ONR_MIZ,North
2014-03-14T07:59:31Z,1394783971,2014,7,59,73.333,73.333,73.4145,-135.5965,-999.00,-999.00,-999.0,no,no,no,90077,ITP,WHOI,ONR_MIZ,North
2014-03-14T09:00:00Z,1394787600,2014,9,0,73.375,73.375,73.415,-135.6045,-999.00,-999.00,-999.0,no,no,no,90077,ITP,WHOI,ONR_MIZ,North
2014-03-14T10:00:28Z,1394791229,2014,10,0,73.417,73.417,73.416,-135.6045,-999.00,-999.00,-999.0,no,no,no,90077,ITP,WHOI,ONR_MIZ,North
2014-03-14T11:03:50Z,1394795030,2014,11,3,73.461,73.461,73.4171,-135.6102,-999.00,-999.00,-999.0,no,no,no,90077,ITP,WHOI,ONR_MIZ,North
2014-03-14T12:00:00Z,1394798400,2014,12,0,73.5,73.5,73.4185,-135.6155,-999.00,-999.00,-999.0,no,no,no,90077,ITP,WHOI,ONR_MIZ,North
2014-03-14T13:00:28Z,1394802029,2014,13,0,73.542,73.542,73.4201,-135.6226,-999.00,-999.00,-999.0,no,no,no,90077,ITP,WHOI,ONR_MIZ,North
2014-03-14T13:59:31Z,1394805571,2014,13,59,73.583,73.583,73.421,-135.6316,-999.00,-999.00,-999.0,no,no,no,90077,ITP,WHOI,ONR_MIZ,North
2014-03-14T15:00:00Z,1394809200,2014,15,0,73.625,73.625,73.422,-135.6412,-999.00,-999.00,-999.0,no,no,no,90077,ITP,WHOI,ONR_MIZ,North
2014-03-14T16:00:28Z,1394812829,2014,16,0,73.667,73.667,73.4216,-135.6546,-999.00,-999.00,-999.0,no,no,no,90077,ITP,WHOI,ONR_MIZ,North
2014-03-14T17:03:50Z,1394816630,2014,17,3,73.711,73.711,73.4222,-135.66,-999.00,-999.00,-999.0,no,no,no,90077,ITP,WHOI,ONR_MIZ,North
2014-03-14T18:00:00Z,1394820000,2014,18,0,73.75,73.75,73.4233,-135.6795,-999.00,-999.00,-999.0,no,no,no,90077,ITP,WHOI,ONR_MIZ,North
2014-03-14T19:00:28Z,1394823629,2014,19,0,73.792,73.792,73.4244,-135.6769,-999.00,-999.00,-999.0,no,no,no,90077,ITP,WHOI,ONR_MIZ,North
2014-03-14T19:59:31Z,1394827171,2014,19,59,73.833,73.833,73.4262,-135.6857,-999.00,-999.00,-999.0,no,no,no,90077,ITP,WHOI,ONR_MIZ,North
2014-03-14T21:00:00Z,1394830800,2014,21,0,73.875,73.875,73.4282,-135.6945,-999.00,-999.00,-999.0,no,no,no,90077,ITP,WHOI,ONR_MIZ,North
2014-03-14T23:18:14Z,1394839094,2014,23,18,73.971,73.971,73.4333,-135.7142,-999.00,-999.00,-999.0,no,no,no,90077,ITP,WHOI,ONR_MIZ,North
2014-03-15T00:00:00Z,1394841600,2014,0,0,74.0,74.0,73.4348,-135.7197,-999.00,-999.00,-999.0,no,no,no,90077,ITP,WHOI,ONR_MIZ,North
2014-03-15T01:00:28Z,1394845229,2014,1,0,74.042,74.042,73.4371,-135.7276,-999.00,-999.00,-999.0,no,no,no,90077,ITP,WHOI,ONR_MIZ,North
2014-03-15T01:59:31Z,1394848771,2014,1,59,74.083,74.083,73.4394,-135.7354,-999.00,-999.00,-999.0,no,no,no,90077,ITP,WHOI,ONR_MIZ,North
2014-03-15T03:00:00Z,1394852400,2014,3,0,74.125,74.125,73.4419,-135.743,-999.00,-999.00,-999.0,no,no,no,90077,ITP,WHOI,ONR_MIZ,North
2014-03-15T04:17:45Z,1394857066,2014,4,18,74.179,74.179,73.4451,-135.7524,-999.00,-999.00,-999.0,no,no,no,90077,ITP,WHOI,ONR_MIZ,North
2014-03-15T05:06:43Z,1394860003,2014,5,6,74.213,74.213,73.4469,-135.7577,-999.00,-999.00,-999.0,no,no,no,90077,ITP,WHOI,ONR_MIZ,North
2014-03-15T06:00:00Z,1394863200,2014,6,0,74.25,74.25,73.4489,-135.7633,-999.00,-999.00,-999.0,no,no,no,90077,ITP,WHOI,ONR_MIZ,North
2014-03-15T07:00:28Z,1394866829,2014,7,0,74.292,74.292,73.451,-135.7697,-999.00,-999.00,-999.0,no,no,no,90077,ITP,WHOI,ONR_MIZ,North
2014-03-15T07:59:31Z,1394870371,2014,7,59,74.333,74.333,73.453,-135.7756,-999.00,-999.00,-999.0,no,no,no,90077,ITP,WHOI,ONR_MIZ,North
2014-03-15T09:00:00Z,1394874000,2014,9,0,74.375,74.375,73.4549,-135.7814,-999.00,-999.00,-999.0,no,no,no,90077,ITP,WHOI,ONR_MIZ,North
2014-03-15T10:00:28Z,1394877629,2014,10,0,74.417,74.417,73.4565,-135.7883,-999.00,-999.00,-999.0,no,no,no,90077,ITP,WHOI,ONR_MIZ,North
2014-03-15T11:03:50Z,1394881430,2014,11,3,74.461,74.461,73.4582,-135.7959,-999.00,-999.00,-999.0,no,no,no,90077,ITP,WHOI,ONR_MIZ,North
2014-03-15T12:00:00Z,1394884800,2014,12,0,74.5,74.5,73.46,-135.8029,-999.00,-999.00,-999.0,no,no,no,90077,ITP,WHOI,ONR_MIZ,North
2014-03-15T13:00:28Z,1394888429,2014,13,0,74.542,74.542,73.4619,-135.8107,-999.00,-999.00,-999.0,no,no,no,90077,ITP,WHOI,ONR_MIZ,North
2014-03-15T13:59:31Z,1394891971,2014,13,59,74.583,74.583,73.4641,-135.8187,-999.00,-999.00,-999.0,no,no,no,90077,ITP,WHOI,ONR_MIZ,North
2014-03-15T15:00:00Z,1394895600,2014,15,0,74.625,74.625,73.4664,-135.8268,-999.00,-999.00,-999.0,no,no,no,90077,ITP,WHOI,ONR_MIZ,North
2014-03-15T16:00:28Z,1394899229,2014,16,0,74.667,74.667,73.4687,-135.8454,-999.00,-999.00,-999.0,no,no,no,90077,ITP,WHOI,ONR_MIZ,North
2014-03-15T17:03:50Z,1394903030,2014,17,3,74.711,74.711,73.4713,-135.8426,-999.00,-999.00,-999.0,no,no,no,90077,ITP,WHOI,ONR_MIZ,North
2014-03-15T18:00:00Z,1394906400,2014,18,0,74.75,74.75,73.4733,-135.8488,-999.00,-999.00,-999.0,no,no,no,90077,ITP,WHOI,ONR_MIZ,North
2014-03-15T19:00:28Z,1394910029,2014,19,0,74.792,74.792,73.4753,-135.8562,-999.00,-999.00,-999.0,no,no,no,90077,ITP,WHOI,ONR_MIZ,North
2014-03-15T19:59:31Z,1394913571,2014,19,59,74.833,74.833,73.4772,-135.8638,-999.00,-999.00,-999.0,no,no,no,90077,ITP,WHOI,ONR_MIZ,North
2014-03-15T21:00:00Z,1394917200,2014,21,0,74.875,74.875,73.4792,-135.8719,-999.00,-999.00,-999.0,no,no,no,90077,ITP,WHOI,ONR_MIZ,North
2014-03-15T22:00:28Z,1394920829,2014,22,0,74.917,74.917,73.481,-135.8809,-999.00,-999.00,-999.0,no,no,no,90077,ITP,WHOI,ONR_MIZ,North
2014-03-15T23:03:50Z,1394924630,2014,23,3,74.961,74.961,73.4831,-135.8917,-999.00,-999.00,-999.0,no,no,no,90077,ITP,WHOI,ONR_MIZ,North
2014-03-16T00:00:00Z,1394928000,2014,0,0,75.0,75.0,73.4848,-135.9147,-999.00,-999.00,-999.0,no,no,no,90077,ITP,WHOI,ONR_MIZ,North
2014-03-16T01:00:28Z,1394931629,2014,1,0,75.042,75.042,73.4866,-135.9115,-999.00,-999.00,-999.0,no,no,no,90077,ITP,WHOI,ONR_MIZ,North
2014-03-16T01:59:31Z,1394935171,2014,1,59,75.083,75.083,73.4884,-135.9219,-999.00,-999.00,-999.0,no,no,no,90077,ITP,WHOI,ONR_MIZ,North
2014-03-16T03:00:00Z,1394938800,2014,3,0,75.125,75.125,73.4904,-135.9328,-999.00,-999.00,-999.0,no,no,no,90077,ITP,WHOI,ONR_MIZ,North
2014-03-16T04:00:28Z,1394942429,2014,4,0,75.167,75.167,73.4923,-135.9437,-999.00,-999.00,-999.0,no,no,no,90077,ITP,WHOI,ONR_MIZ,North
2014-03-16T05:03:50Z,1394946230,2014,5,4,75.211,75.211,73.4943,-135.9557,-999.00,-999.00,-999.0,no,no,no,90077,ITP,WHOI,ONR_MIZ,North
2014-03-16T06:00:00Z,1394949600,2014,6,0,75.25,75.25,73.4961,-135.966,-999.00,-999.00,-999.0,no,no,no,90077,ITP,WHOI,ONR_MIZ,North
2014-03-16T07:00:28Z,1394953229,2014,7,0,75.292,75.292,73.4977,-135.9761,-999.00,-999.00,-999.0,no,no,no,90077,ITP,WHOI,ONR_MIZ,North
2014-03-16T07:59:31Z,1394956771,2014,7,59,75.333,75.333,73.4989,-135.9853,-999.00,-999.00,-999.0,no,no,no,90077,ITP,WHOI,ONR_MIZ,North
2014-03-16T09:00:00Z,1394960400,2014,9,0,75.375,75.375,73.5009,-135.9944,-999.00,-999.00,-999.0,no,no,no,90077,ITP,WHOI,ONR_MIZ,North
2014-03-16T10:00:28Z,1394964029,2014,10,0,75.417,75.417,73.5029,-136.0047,-999.00,-999.00,-999.0,no,no,no,90077,ITP,WHOI,ONR_MIZ,North
2014-03-16T11:03:50Z,1394967830,2014,11,3,75.461,75.461,73.5064,-136.0229,-999.00,-999.00,-999.0,no,no,no,90077,ITP,WHOI,ONR_MIZ,North
2014-03-16T12:00:00Z,1394971200,2014,12,0,75.5,75.5,73.5085,-136.0296,-999.00,-999.00,-999.0,no,no,no,90077,ITP,WHOI,ONR_MIZ,North
2014-03-16T13:00:28Z,1394974829,2014,13,0,75.542,75.542,73.5099,-136.0434,-999.00,-999.00,-999.0,no,no,no,90077,ITP,WHOI,ONR_MIZ,North
2014-03-16T13:59:31Z,1394978371,2014,13,59,75.583,75.583,73.5112,-136.0583,-999.00,-999.00,-999.0,no,no,no,90077,ITP,WHOI,ONR_MIZ,North
2014-03-16T15:00:00Z,1394982000,2014,15,0,75.625,75.625,73.5116,-136.074,-999.00,-999.00,-999.0,no,no,no,90077,ITP,WHOI,ONR_MIZ,North
2014-03-16T16:00:28Z,1394985629,2014,16,0,75.667,75.667,73.5121,-136.089,-999.00,-999.00,-999.0,no,no,no,90077,ITP,WHOI,ONR_MIZ,North
2014-03-16T17:03:50Z,1394989430,2014,17,3,75.711,75.711,73.5126,-136.1045,-999.00,-999.00,-999.0,no,no,no,90077,ITP,WHOI,ONR_MIZ,North
2014-03-16T18:00:00Z,1394992800,2014,18,0,75.75,75.75,73.513,-136.1192,-999.00,-999.00,-999.0,no,no,no,90077,ITP,WHOI,ONR_MIZ,North
2014-03-16T19:00:28Z,1394996429,2014,19,0,75.792,75.792,73.5135,-136.1353,-999.00,-999.00,-999.0,no,no,no,90077,ITP,WHOI,ONR_MIZ,North
2014-03-16T19:59:31Z,1394999971,2014,19,59,75.833,75.833,73.5116,-136.1519,-999.00,-999.00,-999.0,no,no,no,90077,ITP,WHOI,ONR_MIZ,North
2014-03-16T21:00:00Z,1395003600,2014,21,0,75.875,75.875,73.5073,-136.1687,-999.00,-999.00,-999.0,no,no,no,90077,ITP,WHOI,ONR_MIZ,North
2014-03-16T23:19:40Z,1395011981,2014,23,19,75.972,75.972,73.5003,-136.2123,-999.00,-999.00,-999.0,no,no,no,90077,ITP,WHOI,ONR_MIZ,North
2014-03-17T00:00:00Z,1395014400,2014,0,0,76.0,76.0,73.4989,-136.2255,-999.00,-999.00,-999.0,no,no,no,90077,ITP,WHOI,ONR_MIZ,North
2014-03-17T01:00:28Z,1395018029,2014,1,0,76.042,76.042,73.497,-136.245,-999.00,-999.00,-999.0,no,no,no,90077,ITP,WHOI,ONR_MIZ,North
2014-03-17T01:59:31Z,1395021571,2014,1,59,76.083,76.083,73.496,-136.2652,-999.00,-999.00,-999.0,no,no,no,90077,ITP,WHOI,ONR_MIZ,North
2014-03-17T03:00:00Z,1395025200,2014,3,0,76.125,76.125,73.4951,-136.2863,-999.00,-999.00,-999.0,no,no,no,90077,ITP,WHOI,ONR_MIZ,North
2014-03-17T04:19:12Z,1395029952,2014,4,18,76.18,76.18,73.4946,-136.3137,-999.00,-999.00,-999.0,no,no,no,90077,ITP,WHOI,ONR_MIZ,North
2014-03-17T05:06:43Z,1395032803,2014,5,6,76.213,76.213,73.4943,-136.3299,-999.00,-999.00,-999.0,no,no,no,90077,ITP,WHOI,ONR_MIZ,North
2014-03-17T06:00:00Z,1395036000,2014,6,0,76.25,76.25,73.4943,-136.3473,-999.00,-999.00,-999.0,no,no,no,90077,ITP,WHOI,ONR_MIZ,North
2014-03-17T07:00:28Z,1395039629,2014,7,0,76.292,76.292,73.4941,-136.3653,-999.00,-999.00,-999.0,no,no,no,90077,ITP,WHOI,ONR_MIZ,North
2014-03-17T07:59:31Z,1395043171,2014,7,59,76.333,76.333,73.4935,-136.3813,-999.00,-999.00,-999.0,no,no,no,90077,ITP,WHOI,ONR_MIZ,North
2014-03-17T09:00:00Z,1395046800,2014,9,0,76.375,76.375,73.4926,-136.3969,-999.00,-999.00,-999.0,no,no,no,90077,ITP,WHOI,ONR_MIZ,North